Regional Weather Roundup
Issued by NWS Upton, NY

Current Version | Previous Version | Text Only | Print | Product List | Glossary On
Versions: 1 2 3 4 5 6 7 8 9 10 11 12 13 14 15 16 17 18 19 20 21 22 23 24 25 26 27 28 29 30 31 32 33 34 35 36 37 38 39 40 41 42 43 44 45 46 47 48 49 50
000
ASUS41 KOKX 221009
RWROKX

REGIONAL WEATHER ROUNDUP
NATIONAL WEATHER SERVICE NEW YORK NY
600 AM EDT MON MAY 22 2017

NOTE: "FAIR" INDICATES FEW OR NO CLOUDS BELOW 12,000 FEET WITH NO
SIGNIFICANT WEATHER AND/OR OBSTRUCTIONS TO VISIBILITY.

NYZ071-072-176-178-NJZ106-104-221100-
NEW YORK CITY METRO AREA

CITY           SKY/WX    TMP DP  RH WIND       PRES   REMARKS
Central Park   CLOUDY    54  52  93 VRB5      30.20S
Wall St Helipt CLOUDY    56  49  77 VRB3      30.18S
Bronx Bot Gard   N/A     52  50  93 NE5       30.17F
LaGuardia APRT LGT RAIN  58  51  78 SE8       30.17F
Kennedy INTL   LGT RAIN  56  51  84 SE10      30.18F
Breezy Point     N/A     54 N/A N/A SE9         N/A
Newark/Liberty CLOUDY    56  51  84 CALM      30.17S
Teterboro      CLOUDY    55  51  86 SE7       30.16S
$$

NYZ177-179-078>081-221100-
LONG ISLAND NEW YORK

CITY           SKY/WX    TMP DP  RH WIND       PRES   REMARKS
Jones Beach      N/A     54 N/A N/A SE9         N/A
Matinecock PT  NOT AVBL
Farmingdale    CLOUDY    54  49  83 SE6       30.18F
MacArthur/ISP  LGT RAIN  53  50  89 E6        30.19S
Shirley        LGT RAIN  53  52  96 CALM      30.20F
Mt Sinai Harb    N/A     50 N/A N/A E2          N/A
Westhampton    LGT RAIN  53  47  79 E3        30.22F
East Hampton   CLOUDY    53  46  79 SE5       30.21S
Montauk          N/A     54  48  80 CALM      30.24S
$$

NYZ052-065-067-221100-
HUDSON VALLEY

CITY           SKY/WX    TMP DP  RH WIND       PRES   REMARKS
White Plains   CLOUDY    52  49  89 E5        30.17S
Larchmont Harb   N/A     54 N/A N/A E7          N/A
Croton O-T Hud   N/A     54 N/A N/A E5          N/A
Newburgh       CLOUDY    54  46  76 S9        30.17S
Montgomery     CLOUDY    55  46  71 S5        30.14F
Poughkeepsie   CLOUDY    54  42  64 SE5       30.15F
Albany         LGT RAIN  50  44  80 E3        30.13S
$$

NJZ001-105-106-008-010-013-015-019>022-104-221100-
NEW JERSEY

CITY           SKY/WX    TMP DP  RH WIND       PRES   REMARKS
Newark/Liberty CLOUDY    56  51  84 CALM      30.17S
Teterboro      CLOUDY    55  51  86 SE7       30.16S
Caldwell       CLOUDY    55  49  80 CALM      30.17F
Somerville     CLOUDY    54  52  93 CALM      30.15S
Linden         CLOUDY    56  50  82 SE5       30.17S
Perth Amboy      N/A     55 N/A N/A SE12        N/A
Sussex         CLOUDY    55  46  71 CALM      30.15F
Andover          N/A     53  45  74 VRB3      30.15S
Trenton        LGT RAIN  54  52  93 E5        30.15F
Millville      LGT RAIN  56  56 100 NE5       30.13S FOG
Atlantic City  CLOUDY    58  54  86 E6        30.13F
Wrightstown    RAIN      54  52  93 NE5       30.14S FOG
Toms River     LGT RAIN  54  53  97 E3        30.16F
Belmar         LGT RAIN  54  52  93 E6        30.18S
$$

PAZ047>061-062-071-221100-
EASTERN PENNSYLVANIA

CITY           SKY/WX    TMP DP  RH WIND       PRES   REMARKS
Philadelphia   LGT RAIN  56  53  90 E6        30.14F FOG
Allentown      CLOUDY    56  48  74 SE5       30.13F
Scranton       CLOUDY    56  45  66 CALM      30.08F
$$

CTZ002-004>006-009-010-012-RIZ004-006-007-MAZ004-011-015-221100-
SOUTHERN NEW ENGLAND
 IN CT

CITY           SKY/WX    TMP DP  RH WIND       PRES   REMARKS
Bradley INTL   CLOUDY    52  46  80 S7        30.20S
Hartford       CLOUDY    52  48  86 S6        30.20F
Danbury        CLOUDY    49  45  86 S5        30.19F
Wtrbury/Oxford CLOUDY    48  43  81 S6        30.20S
Bridgeport     LGT RAIN  53  47  79 E6        30.19F
Meriden        CLOUDY    50  46  86 S5        30.20F
New Haven      LGT RAIN  51  46  83 SE3       30.21F
Chester        LGT RAIN  50  50 100 CALM      30.21F
Groton         LGT RAIN  53  49  86 E5        30.22S
Wilimantic     LGT RAIN  52  48  86 S3        30.22S

 IN RI

CITY           SKY/WX    TMP DP  RH WIND       PRES   REMARKS
Providence     LGT RAIN  53  49  86 SW5       30.24R
Block Island   LGT RAIN  52  47  83 CALM      30.24R
Westerly       LGT RAIN  53  48  83 SE3       30.23S
 IN MA

CITY           SKY/WX    TMP DP  RH WIND       PRES   REMARKS
Boston         CLOUDY    54  39  57 SW9       30.23R
Worcester      NOT AVBL
Westfield      CLOUDY    51  46  83 S5        30.19R
Provincetown   CLOUDY    52  46  80 S7        30.24S
Nantucket      CLOUDY    52  34  50 S3        30.25R
$$

ANZ330-335-338-340-345-350-353-355-221100-
COASTAL MARINE OBSERVATIONS


STATION/POSITION TIME  SKY/WX   TEMP    WIND        PRES    VSBY  WAVE
                                AIR SEA DIR/SP/G                  HT/PER
                 (UTC)          (F)     (DEG/KT/KT) (MB)    (MI)  (FT/S)
NY HARB ENTRANCE 0850            56 56  130/  8/  8 1022.1          2/ 6
20 S FIRE ISLAND 0950            54 54  100/  8/  8 1021.9          2/ 6
GREAT SOUTH BAY  0915            56 65  120/  6/ 10   N/A
23 SSW MONTAUK P 0850            54 55              1023.3          2/ 9
15 E BARNEGAT LI 0900               56                N/A           3/ 6
HUDSON CANYON    0850            55 53  120/  8/ 10 1021.5          3/ 6
KINGS POINT      0942            53 57   90/  1/  3 1021.8
EXECUTION ROCKS  0945            55                   N/A
CENTRAL LI SOUND NOT AVBL
EASTERN LI SOUND NOT AVBL
ROBBINS REEF     0942            56     130/ 11/ 12 1022.0
$$


>>>>>>>>>>>>>>>>>>>>>>>>>>>> KEY <<<<<<<<<<<<<<<<<<<<<<<<<<<
>                                                          <
>     SKY/WX - Sky Condition/Present Weather               <
>     TMP    - Temperature in Fahrenheit                   <
>     DP     - Dew Point in Fahrenheit                     <
>     RH     - Relative Humidity in Percent                <
>     WIND   - Direction (from) and Speed in MPH           <
>     PRES   - Mean Sea Level Pressure (inches of Hg)      <
>     WCI    - Wind Chill Index                            <
>     VSB    - VISIBILITY IN MILES                         <
>     HX     - HEAT INDEX                                  <
>     TC     - TEMPERATURE IN CELSIUS                      <
>     VRB    - VARIABLE WIND DIRECTION                     <
>                                                          <
>>>>>>>>>>>>>>>>>>>>>>>>>>>> KEY <<<<<<<<<<<<<<<<<<<<<<<<<<<



USA.gov is the U.S. government's official web portal to all federal, state and local government web resources and services.